Pagina principală
METAR-TAF:

METAR-TAF

Aeroporturi :

Camiri, Bolivia

Latitudine: 20-00S, longitudine: 063-32W, elevație: 798 m

Observații meteo curente

Raportul a fost făcut în urmă cu 7 ore și 2 de minute, la 22:00 UTC
Vânt calm
Temperatură 30°C
Umiditate 66%
Presiune 1012 hPa
Vizibilitate de 10 km sau mai mult
Nori fragmentați la o înălțime de 3600 picior
Nori fragmentați la o înălțime de 20000 picior

METAR: SLCA 242200Z 00000KT 9999 BKN036 BKN200 30/23 Q1012

Ora: 01:02 (05:02 UTC)


TAF: lipsă

Observații și prognoze meteo pentru peste 4.000 de aeroporturi (rapoarte METAR și TAF).

Stațiile disponibile sunt reprezentate pe hartă prin puncte galbene și roșii.

Țineți indicatorul mouse-ului pe punctul dorit pentru a vedea denumirea stației.

Apoi, faceți clic pentru a vedea observațiile și prognozele meteorologice.

Pentru a schimba harta: Pentru mărire, faceți clic pe butoanele verzi cu cruce neagră; pentru micșorare, pe butonul verde cu o liniuță; pentru hărți învecinate, pe săgețile verzi.


METAR-TAF: